CDT,Max TemperatureF,Mean TemperatureF,Min TemperatureF,Max Dew PointF,MeanDew PointF,Min DewpointF,Max Humidity, Mean Humidity, Min Humidity, Max Sea Level PressureIn, Mean Sea Level PressureIn, Min Sea Level PressureIn, Max VisibilityMiles, Mean VisibilityMiles, Min VisibilityMiles, Max Wind SpeedMPH, Mean Wind SpeedMPH, Max Gust SpeedMPH,PrecipitationIn, CloudCover, Events, WindDirDegrees
2013-3-1,26,24,21,21,18,14,93,78,64,30.38,30.30,30.22,10,9,3,16,11,21,0.00,8,Snow,355
2013-3-2,30,24,19,21,17,16,86,76,55,30.37,30.29,30.15,10,10,7,8,5,,0.00,6,,235
2013-3-3,37,29,21,25,21,18,93,71,56,30.15,29.96,29.81,10,10,10,18,7,24,0.00,0,,141
2013-3-4,42,35,28,32,27,21,93,76,57,30.02,29.83,29.75,10,9,2,20,9,24,0.00,5,Rain-Snow,80
2013-3-5,32,28,24,28,21,18,87,76,69,30.38,30.17,30.01,10,9,1,33,20,43,0.00,8,Snow,312
2013-3-6,35,24,14,21,18,12,93,73,48,30.45,30.39,30.31,10,10,10,17,8,21,0.00,2,,28
2013-3-7,44,32,19,27,22,18,93,77,46,30.34,30.27,30.18,10,10,10,17,7,23,0.00,0,,130
2013-3-8,53,40,26,37,29,23,93,70,41,30.25,30.15,29.99,10,10,4,17,8,24,0.19,2,Rain,135
2013-3-9,46,40,35,46,41,36,100,96,87,29.98,29.77,29.63,10,5,0,26,10,31,0.44,8,Fog-Rain,150
2013-3-10,35,29,23,36,28,21,100,98,86,29.91,29.83,29.72,10,6,0,30,21,37,0.10,8,Rain-Snow,350
2013-3-11,26,19,12,21,19,12,100,86,69,30.01,29.91,29.86,10,10,5,24,17,29,0.02,4,,302
2013-3-12,30,22,15,25,20,12,100,82,69,30.33,30.16,30.01,10,9,3,33,13,39,0.00,5,Snow,299
2013-3-13,30,20,10,23,16,9,93,80,60,30.48,30.39,30.30,10,10,10,14,6,,0.00,0,,264
2013-3-14,46,36,26,37,30,21,100,77,66,30.29,30.15,30.10,10,9,2,14,6,16,0.00,1,,227
2013-3-15,53,40,28,45,36,28,100,90,66,30.09,29.88,29.75,10,5,0,18,3,18,0.00,2,Fog,346
2013-3-16,37,32,26,36,27,21,100,85,74,30.24,30.09,29.88,10,9,2,25,14,32,0.00,8,,9
2013-3-17,41,30,19,34,23,16,100,76,52,30.21,30.01,29.81,10,9,2,17,11,22,0.02,4,Rain,100
2013-3-18,33,28,21,34,23,14,100,76,51,30.07,29.89,29.76,10,8,1,33,14,46,0.06,4,Rain-Snow,288
2013-3-19,42,28,15,27,16,10,86,65,36,30.33,30.18,30.06,10,10,10,20,7,23,0.00,1,,318
2013-3-20,28,20,12,18,10,3,86,63,43,30.41,30.31,30.16,10,10,10,29,16,32,0.00,1,,327
2013-3-21,33,24,15,19,12,7,93,62,35,30.15,30.05,29.96,10,10,10,12,5,,0.00,3,,95
2013-3-22,33,26,19,23,18,14,93,69,44,30.08,30.05,30.01,10,10,10,12,5,,0.00,5,,85
2013-3-23,35,30,26,28,23,16,100,78,44,30.16,30.11,30.07,10,9,1,16,7,20,0.00,7,Snow,29
2013-3-24,30,26,23,25,22,19,93,82,74,30.10,30.05,30.01,10,8,2,25,15,31,0.00,8,Snow,334
2013-3-25,30,26,23,27,22,19,100,82,64,30.34,30.20,30.07,10,7,2,22,17,28,0.00,7,Snow,323
2013-3-26,35,25,15,23,18,14,100,72,48,30.40,30.34,30.28,10,10,10,13,7,,0.00,2,,303
2013-3-27,50,34,19,27,22,18,100,66,32,30.33,30.29,30.23,10,10,10,13,4,17,0.00,2,,127
2013-3-28,57,40,24,34,27,21,100,63,27,30.31,30.27,30.21,10,10,5,12,2,,0.00,2,,114
2013-3-29,64,47,30,36,29,21,93,54,19,30.29,30.20,30.11,10,10,7,15,4,23,0.00,0,,158
2013-3-30,64,53,41,48,40,28,93,65,39,30.11,29.99,29.94,10,10,7,18,9,25,0.01,4,Rain,300
2013-3-31,53,42,28,37,29,14,100,67,22,30.18,30.02,29.97,10,9,2,24,11,32,0.01,2,Rain-Snow,335